| time (UTC) | temp F | wind direction | speed knots | gust knots | rain 1hr in | rain 24hr in | rain mn in | humidity % | barometer mb |
| 20260508190030 | 59 | 34 | 2.6 | 7.0 | 0.00 | 0.00 | 0.00 | 46 | 1021.5 |
| 20260508184530 | 57 | 42 | 1.7 | 6.1 | 0.00 | 0.00 | 0.00 | 48 | 1021.5 |
| 20260508180110 | 58 | 48 | 2.6 | 7.0 | 0.00 | 0.00 | 0.00 | 48 | 1021.0 |
| 20260508174541 | 60 | 42 | 1.7 | 6.1 | 0.00 | 0.00 | 0.00 | 49 | 1020.7 |
| 20260508173030 | 60 | 42 | 1.7 | 7.0 | 0.00 | 0.00 | 0.00 | 51 | 1020.6 |
| 20260508170030 | 61 | 40 | 1.7 | 5.2 | 0.00 | 0.00 | 0.00 | 52 | 1020.6 |
| 20260508163030 | 60 | 49 | 1.7 | 6.1 | 0.00 | 0.00 | 0.00 | 56 | 1020.7 |
| 20260508161529 | 58 | 44 | 1.7 | 5.2 | 0.00 | 0.00 | 0.00 | 58 | 1020.8 |
| 20260508154532 | 56 | 32 | 0.9 | 3.5 | 0.00 | 0.00 | 0.00 | 60 | 1020.8 |
| 20260508153031 | 54 | 16 | 0.9 | 3.5 | 0.00 | 0.00 | 0.00 | 63 | 1020.7 |
| 20260508151605 | 52 | 9 | 0.9 | 3.5 | 0.00 | 0.00 | 0.00 | 65 | 1020.6 |
| 20260508150105 | 52 | 4 | 0.0 | 3.5 | 0.00 | 0.00 | 0.00 | 65 | 1020.4 |
| 20260508143027 | 48 | 312 | 0.0 | 2.6 | 0.00 | 0.00 | 0.00 | 67 | 1020.0 |
| 20260508141530 | 47 | 250 | 0.0 | 3.5 | 0.00 | 0.00 | 0.00 | 64 | 1020.0 |
| 20260508134531 | 44 | 240 | 1.7 | 5.2 | 0.00 | 0.00 | 0.00 | 64 | 1019.6 |
| 20260508130031 | 43 | 239 | 1.7 | 4.3 | 0.00 | 0.00 | 0.00 | 64 | 1019.2 |
| 20260508121530 | 44 | 236 | 0.9 | 3.5 | 0.00 | 0.00 | 0.00 | 63 | 1019.1 |
| 20260508114531 | 45 | 277 | 1.7 | 5.2 | 0.00 | 0.00 | 0.00 | 60 | 1019.1 |
| 20260508113031 | 43 | 277 | 2.6 | 4.3 | 0.00 | 0.00 | 0.00 | 63 | 1018.8 |
| 20260508111532 | 43 | 244 | 1.7 | 6.1 | 0.00 | 0.00 | 0.00 | 63 | 1018.8 |
| 20260508110030 | 43 | 241 | 2.6 | 5.2 | 0.00 | 0.00 | 0.00 | 63 | 1018.8 |
| 20260508104529 | 43 | 242 | 1.7 | 4.3 | 0.00 | 0.00 | 0.00 | 61 | 1018.8 |
| 20260508103030 | 44 | 231 | 2.6 | 5.2 | 0.00 | 0.00 | 0.00 | 59 | 1018.8 |
| 20260508101541 | 45 | 233 | 2.6 | 6.1 | 0.00 | 0.00 | 0.00 | 57 | 1018.8 |
| 20260508100029 | 46 | 238 | 1.7 | 4.3 | 0.00 | 0.00 | 0.00 | 57 | 1018.8 |
| 20260508094532 | 45 | 230 | 1.7 | 4.3 | 0.00 | 0.00 | 0.00 | 57 | 1018.8 |
| 20260508090145 | 45 | 242 | 0.9 | 3.5 | 0.00 | 0.00 | 0.00 | 56 | 1018.6 |
| 20260508084532 | 45 | 238 | 1.7 | 6.1 | 0.00 | 0.00 | 0.00 | 55 | 1018.6 |
| 20260508083032 | 45 | 242 | 1.7 | 5.2 | 0.00 | 0.00 | 0.00 | 55 | 1018.7 |
| 20260508081529 | 46 | 229 | 1.7 | 3.5 | 0.00 | 0.00 | 0.00 | 54 | 1018.7 |
| 20260508080106 | 47 | 233 | 1.7 | 4.3 | 0.00 | 0.00 | 0.00 | 52 | 1018.7 |
| 20260508073029 | 47 | 230 | 1.7 | 3.5 | 0.00 | 0.00 | 0.00 | 50 | 1018.6 |
| 20260508071531 | 48 | 227 | 1.7 | 3.5 | 0.00 | 0.00 | 0.00 | 49 | 1018.6 |
| 20260508070029 | 49 | 246 | 0.9 | 2.6 | 0.00 | 0.00 | 0.00 | 47 | 1018.6 |
| 20260508064531 | 50 | 247 | 1.7 | 4.3 | 0.00 | 0.00 | 0.00 | 45 | 1018.6 |
| 20260508063030 | 52 | 217 | 0.9 | 2.6 | 0.00 | 0.00 | 0.00 | 42 | 1018.6 |
| 20260508061606 | 56 | 241 | 0.9 | 4.3 | 0.00 | 0.00 | 0.00 | 40 | 1018.5 |
| 20260508060030 | 58 | 318 | 0.9 | 3.5 | 0.00 | 0.00 | 0.00 | 39 | 1018.4 |
| 20260508054532 | 58 | 14 | 0.0 | 5.2 | 0.00 | 0.00 | 0.00 | 39 | 1018.2 |
| 20260508053104 | 59 | 37 | 0.9 | 4.3 | 0.00 | 0.00 | 0.00 | 38 | 1018.1 |
| 20260508051528 | 59 | 31 | 1.7 | 7.0 | 0.00 | 0.00 | 0.00 | 36 | 1018.0 |
| 20260508050029 | 60 | 26 | 1.7 | 5.2 | 0.00 | 0.00 | 0.00 | 33 | 1018.1 |
| 20260508043030 | 59 | 20 | 0.0 | 7.0 | 0.00 | 0.00 | 0.00 | 31 | 1018.1 |
| 20260508041531 | 59 | 19 | 0.0 | 2.6 | 0.00 | 0.00 | 0.00 | 30 | 1018.0 |
| 20260508040147 | 60 | 310 | 0.0 | 2.6 | 0.00 | 0.00 | 0.00 | 27 | 1017.7 |
| 20260508033031 | 62 | 18 | 1.7 | 7.0 | 0.00 | 0.00 | 0.00 | 24 | 1017.3 |
| 20260508030033 | 64 | 26 | 0.9 | 9.6 | 0.00 | 0.00 | 0.00 | 23 | 1017.3 |
| 20260508024530 | 67 | 34 | 1.7 | 6.1 | 0.00 | 0.00 | 0.00 | 22 | 1017.1 |
| 20260508021608 | 68 | 46 | 1.7 | 4.3 | 0.00 | 0.00 | 0.00 | 22 | 1016.9 |
| 20260508020028 | 68 | 40 | 1.7 | 5.2 | 0.00 | 0.00 | 0.00 | 22 | 1017.0 |
| 20260508014532 | 68 | 36 | 1.7 | 5.2 | 0.00 | 0.00 | 0.00 | 22 | 1017.1 |
| 20260508011529 | 70 | 36 | 1.7 | 10.4 | 0.00 | 0.00 | 0.00 | 22 | 1017.3 |
| 20260508010033 | 71 | 37 | 1.7 | 5.2 | 0.00 | 0.00 | 0.00 | 22 | 1017.3 |
| 20260508004528 | 72 | 48 | 2.6 | 7.8 | 0.00 | 0.00 | 0.00 | 22 | 1017.3 |
| 20260508003028 | 72 | 49 | 1.7 | 7.0 | 0.00 | 0.00 | 0.00 | 23 | 1017.2 |
| 20260508000034 | 71 | 41 | 1.7 | 6.1 | 0.00 | 0.00 | 0.00 | 26 | 1017.2 |
| 20260507234530 | 71 | 44 | 2.6 | 7.8 | 0.00 | 0.00 | 0.00 | 26 | 1016.9 |
| 20260507233028 | 72 | 58 | 2.6 | 7.0 | 0.00 | 0.00 | 0.00 | 24 | 1017.0 |
| 20260507231528 | 73 | 59 | 2.6 | 7.8 | 0.00 | 0.00 | 0.00 | 24 | 1017.1 |
| 20260507230029 | 73 | 46 | 2.6 | 7.0 | 0.00 | 0.00 | 0.00 | 25 | 1017.2 |
| 20260507221528 | 73 | 49 | 2.6 | 7.8 | 0.00 | 0.00 | 0.00 | 27 | 1017.7 |
| 20260507211541 | 73 | 48 | 1.7 | 5.2 | 0.00 | 0.00 | 0.00 | 31 | 1018.3 |
| 20260507210031 | 72 | 46 | 1.7 | 6.1 | 0.00 | 0.00 | 0.00 | 32 | 1018.5 |
| 20260507204607 | 71 | 52 | 1.7 | 5.2 | 0.00 | 0.00 | 0.00 | 32 | 1018.6 |
| 20260507203028 | 70 | 42 | 1.7 | 5.2 | 0.00 | 0.00 | 0.00 | 33 | 1018.7 |
| 20260507201532 | 69 | 49 | 1.7 | 5.2 | 0.00 | 0.00 | 0.00 | 34 | 1018.7 |
| 20260507200030 | 69 | 48 | 2.6 | 7.0 | 0.00 | 0.00 | 0.00 | 35 | 1018.8 |
| 20260507194528 | 70 | 55 | 1.7 | 6.1 | 0.00 | 0.00 | 0.00 | 36 | 1019.1 |
| 20260507193034 | 69 | 66 | 0.9 | 3.5 | 0.00 | 0.00 | 0.00 | 38 | 1019.5 |
| 20260507191530 | 67 | 47 | 1.7 | 6.1 | 0.00 | 0.00 | 0.00 | 40 | 1019.4 |